Regional Weather Roundup
Issued by NWS

Home | Current Version | Previous Version | Graphics & Text | Print | Product List | Glossary On
Versions: 1 2 3 4 5 6 7 8 9 10 11 12 13 14 15 16 17 18 19 20 21 22 23 24 25 26 27 28 29 30 31 32 33 34 35 36 37 38 39 40 41 42 43 44 45 46 47 48 49 50
000
ASUS43 KTOP 230759
RWRKS

WEATHER ROUNDUP FOR KANSAS
NATIONAL WEATHER SERVICE GOODLAND KS
300 AM CDT SAT AUG 23 2014

NOTE:  "FAIR" INDICATES FEW OR NO CLOUDS BELOW 12,000 FEET WITH NO
SIGNIFICANT WEATHER AND/OR OBSTRUCTIONS TO VISIBILITY.

KSZ001>006-013>018-027>032-041>047-230900-
NORTHWEST KANSAS

CITY           SKY/WX    TMP DP  RH WIND       PRES   REMARKS
GOODLAND       MOCLDY    64  63  96 SE7       29.93S
HAYS           PTCLDY    72  64  78 E5        29.88F
HILL CITY      MOCLDY    69  67  93 CALM      29.89F
RUSSELL        PTCLDY    71  67  87 N6        29.87S
$$

KSZ061>065-074>080-084>089-230900-
SOUTHWEST KANSAS

CITY           SKY/WX    TMP DP  RH WIND       PRES   REMARKS
DODGE CITY     MOCLDY    72  63  73 SW9       29.92F
ELKHART          N/A     71  58  63 S10         N/A
GARDEN CITY    LGT RAIN  69  63  81 W7        29.91F
GREAT BEND     MOCLDY    79  57  47 S13       29.89R
LIBERAL        MOCLDY    70  59  68 W6        29.95F
$$

KSZ066>073-081>083-090>101-230900-
SOUTHEAST KANSAS

CITY           SKY/WX    TMP DP  RH WIND       PRES   REMARKS
CHANUTE        CLEAR     79  69  71 S10       29.93S
COFFEYVILLE    CLEAR     79  71  76 S9        29.93S
HUTCHINSON     CLEAR     78  63  59 S9        29.89S
NEWTON         CLEAR     81  59  47 S14       29.94S
PARSONS        CLEAR     78  70  76 S6        29.94S
WICHITA INTL   PTCLDY    78  64  61 S10       29.90S
WICHITA JABRA  CLEAR     79  63  57 S13       29.91S
WINFIELD       CLEAR     77  64  64 S12       29.92S
$$

KSZ007>012-019>026-033>040-048>060-102>105-230900-
NORTHEAST KANSAS

CITY           SKY/WX    TMP DP  RH WIND       PRES   REMARKS
CONCORDIA      MOCLDY    74  73  97 E5        29.88F
EMPORIA        CLEAR     76  69  79 S14       29.90S
LAWRENCE       CLEAR     77  70  79 E6        29.90S
MANHATTAN      MOCLDY    81  68  64 SW12      29.86F
OLATHE IND     CLEAR     77  72  84 S9        29.92S
OLATHE EXE     CLEAR     75  71  87 S6        29.91F
SALINA         CLEAR     81  64  56 S8        29.86S
TOPEKA BILLARD CLEAR     81  72  74 S5        29.88F
TOPEKA FORBES  CLEAR     80  70  71 S10       29.89F
$$



USA.gov is the U.S. government's official web portal to all federal, state and local government web resources and services.